Torna al catalogo

FENGYUN 1C DEB

AttivoPO
NORAD 31364·DEBRIS·🇨🇳 China

Lanciato May 10, 1999 da Taiyuan Satellite Launch Center

Loading…

Prossimi Passaggi (prossime 24 ore)

TLE

AggiornatoSource: Space-Track

Epoca: Sep 14, 2026, 07:50 UTC

1 31364U 99025BRU 26257.32645031  .00003059  00000-0  14774-2 0  9990
2 31364  99.2702  33.0072 0090666  93.2387 267.9164 14.17232747987773

Traccia FENGYUN 1C DEB in tempo reale con AllMySat

Download on the App Store